Overview Statistics Trail Chart Weather Telemetry Raw packets
 

This is the latest recevied weather packets stored in our database for station/object MEGLR. If no packets are shown the sender has not sent any weather packets the latest 10 day(s).

<< 6 7 8 9 10 11 12 >>
Time Temp. Humidity Pressure Rain* Wind** Luminosity Snow
1788573603 16.11° C 82% 0 hPa - - - -
1788573003 16.11° C 85% 0 hPa - - - -
1788572404 16.11° C 85% 0 hPa - - - -
1788571803 16.67° C 82% 0 hPa - - - -
1788571203 16.11° C 81% 0 hPa - - - -
1788570634 16.11° C 79% 0 hPa - - - -
1788570003 16.11° C 77% 0 hPa - - - -
1788569403 16.11° C 76% 0 hPa - - - -
1788568803 16.11° C 64% 0 hPa - - - -
1788568203 16.67° C 77% 0 hPa - - - -
1788567603 16.67° C 77% 0 hPa - - - -
1788567003 16.67° C 73% 0 hPa - - - -
1788566403 16.67° C 74% 0 hPa - - - -
1788565803 17.22° C 70% 0 hPa - - - -
1788565203 17.78° C 66% 0 hPa - - - -
1788564603 17.22° C 70% 0 hPa - - - -
1788564003 18.89° C 62% 0 hPa - - - -
1788563403 18.89° C 58% 0 hPa - - - -
1788562803 18.89° C 62% 0 hPa - - - -
1788562202 18.89° C 59% 0 hPa - - - -
1788561603 18.89° C 61% 0 hPa - - - -
1788561003 18.89° C 58% 0 hPa - - - -
1788560403 18.89° C 60% 0 hPa - - - -
1788559804 18.33° C 63% 0 hPa - - - -
1788559204 17.78° C 66% 0 hPa - - - -

* Rain since midnight (hover to see other rain measurements)
** Current wind speed in m/s (hover to see current wind gust speed)